Location: Krakow
(50.0212°N, 19.9423°E)
Time: 19:56:30
(UTC+02:00)

NOAA 18 - Pass Details

Date: 24 April 2024
Orbit: 837 x 859 km, 98.9° (Epoch: 22 May)

Event Time Altitude Azimuth Distance (km) Brightness Sun altitude
Exits shadow 21:59:48 30° 126° (SE) 1,512 6.0 -17.8°
Maximum altitude 22:02:19 51° 67° (ENE) 1,075 5.6 -18.1°
Drops below altitude 10° 22:07:40 10° 353° (N) 2,503 8.5 -18.7°
Sets 22:10:06 0° 349° (NNW) 3,442 9.5 -18.9°
